Flag for Japan Weather past 2 weeks in Okayama, Japan

Now
72 °F

Mild.


Feels Like: 75 °F
Forecast: 60 / 81 °F
Wind: 7 mph from Northeast

Location: Takamatsu

Current Time: May 29, 2015 at 1:35:35 AM

Latest Report: May 29, 2015 at 12:00 AM


Visibility: N/A

Pressure: 29.83 "Hg

Humidity: 69%

Dew point: 61 °F

Location of OkayamaLocation

Historic Weather in Okayama — Graph

°F

Okayama temperature yesterday

Maximum temperature yesterday: 82 °F (at 1:00 PM)
Minimum temperature yesterday: 65 °F (at 5:00 AM)
Average temperature yesterday: 73 °F

Past Weeks' High & Low Weather Summary

 TemperatureHumidityPressure
High88 °F (May 27, 3:00 PM)97% (May 16, 7:00 AM)30.02 "Hg (May 16, 7:00 AM)
Low56 °F (May 21, 5:00 AM)17% (May 27, 4:00 PM)29.56 "Hg (May 20, 4:00 PM)
Average71 °F60%29.82 "Hg
* Reported Midnight between May 13 and May 14 — Midnight between May 28 and May 29, Okayama, Weather by CustomWeather, © 2015

Note: Actual official high and low records may vary slightly from our data, if they occured in-between our weather recording intervals... More about our weather records

Advertising

Okayama weather history for previous 24 hours

 ConditionsComfort  
Time TempWeatherWind HumidityBarometerVisibility
12:00 AM
Fri, May 29
72 °FMild.7 mph69%29.83 "HgN/A
11:00 PM
Thu, May 28
73 °FMild.5 mph70%29.84 "HgN/A
10:00 PM74 °FMild.2 mph68%29.85 "HgN/A
9:00 PM74 °FOvercast.1 mph68%29.84 "Hg9 mi
8:00 PM75 °FMild.3 mph65%29.83 "HgN/A
7:00 PM75 °FMild.5 mph63%29.82 "HgN/A
6:00 PM76 °FOvercast.5 mph61%29.80 "Hg9 mi
5:00 PM77 °FMild.5 mph60%29.79 "HgN/A
4:00 PM79 °FWarm.3 mph59%29.80 "HgN/A
3:00 PM79 °FOvercast.6 mph54%29.80 "Hg9 mi
2:00 PM80 °FWarm.6 mph48%29.82 "HgN/A
1:00 PM82 °FWarm.8 mph47%29.82 "HgN/A
12:00 PM79 °FOvercast.7 mph50%29.85 "Hg9 mi
11:00 AM78 °FWarm.6 mph53%29.86 "HgN/A
10:00 AM75 °FMild.6 mph59%29.87 "HgN/A
9:00 AM74 °FOvercast.6 mph60%29.86 "Hg9 mi
8:00 AM72 °FMild.3 mph66%29.86 "HgN/A
7:00 AM69 °FMild.2 mph62%29.86 "HgN/A
6:00 AM66 °FOvercast.2 mph67%29.85 "Hg12 mi
5:00 AM65 °FMild.1 mph66%29.85 "HgN/A
4:00 AM67 °FMild.1 mph63%29.83 "HgN/A
3:00 AM67 °FOvercast.2 mph65%29.82 "Hg9 mi
2:00 AM68 °FMild.1 mph63%29.83 "HgN/A
1:00 AM70 °FMild.3 mph56%29.83 "HgN/A
Weather by CustomWeather, © 2015

See weather overviewHow to use our weather pages